Dewpoint
-5 -3 -2 -1 -0 1 1 2 3 3 3 2 2 -1 -1 -0 -0 -1 -2 -5 -12 -14 -15 -17 -20 -22 -17 -6 -1 -4 -4 -4 -5 -5 -0 5 6 9
-5 -5 -5 -4 -3 -1 1 1 3 3 3 2 2 2 2 1 0 -0 -2 -5 -8 -12 -15 -17 -20 -22 -22 -14 -4 -3 -7 -7 -7 -8 -10 -2 2 6
-4 -4 -4 -4 -4 -4 -3 -1 1 3 2 2 2 1 1 1 1 1 -1 -4 -8 -11 -13 -15 -18 -21 -21 -19 -12 -7 -8 -12 -10 -11 -13 -14 -10 -1
-5 -4 -4 -4 -4 -4 -3 -3 -2 -0 3 3 3 2 2 0 1 1 0 -1 -5 -8 -11 -13 -17 -20 -21 -22 -21 -15 -13 -15 -17 -16 -16 -16 -16 -17
-5 -5 -4 -4 -4 -4 -3 -3 -3 -2 0 2 2 2 2 2 1 1 0 -0 -1 -4 -7 -11 -14 -17 -20 -21 -22 -21 -20 -21 -22 -20 -19 -17 -17 -16
-7 -6 -5 -5 -5 -5 -5 -4 -3 -2 -0 1 2 2 2 2 2 1 0 0 -0 -1 -3 -7 -11 -12 -16 -19 -22 -22 -22 -24 -23 -21 -19 -18 -17 -16
-7 -7 -7 -7 -6 -5 -5 -5 -3 -1 -0 1 2 2 2 2 1 1 1 1 -0 -1 -1 -4 -7 -11 -16 -18 -18 -20 -22 -22 -22 -21 -19 -18 -17 -16
-6 -6 -5 -5 -7 -7 -5 -4 -3 -1 -0 1 1 1 1 1 1 1 1 1 1 -0 -1 -3 -6 -8 -9 -11 -14 -18 -20 -21 -20 -19 -18 -18 -17 -17
-7 -8 -8 -7 -4 -5 -6 -4 -3 -2 -1 -0 1 -0 0 1 1 0 0 1 0 0 -0 -1 -2 -3 -5 -7 -9 -12 -17 -20 -20 -20 -19 -19 -18 -18
-7 -7 -7 -7 -5 -3 -4 -5 -4 -3 -3 -2 -1 -1 0 0 0 0 0 0 -0 -1 -1 -2 -2 -3 -4 -5 -6 -10 -15 -19 -19 -20 -20 -20 -19 -18
-5 -6 -7 -5 -4 -3 -2 -2 -3 -3 -2 -3 -3 -3 -3 -3 -2 -1 -1 -1 -1 -1 -1 -2 -3 -3 -3 -4 -5 -9 -14 -18 -19 -20 -20 -21 -21 -20
-2 -4 -6 -6 -5 -3 -3 -2 -2 -2 -2 -2 -2 -2 -2 -3 -2 -2 -1 -1 -1 -1 -2 -2 -3 -3 -5 -7 -10 -11 -13 -16 -18 -19 -19 -18 -17 -17
-2 -6 -9 -7 -6 -10 -4 -2 -3 -3 -2 -2 -1 -2 -2 -1 -2 -2 -1 -1 -2 -2 -2 -2 -2 -3 -4 -7 -14 -17 -17 -17 -17 -17 -17 -17 -17 -17
-13 -13 -15 -11 -6 -7 -12 -8 -2 -2 -2 -2 -2 -2 -2 -2 -2 -2 -2 -2 -2 -2 -2 -2 -2 -2 -3 -3 -4 -6 -9 -12 -15 -15 -8 -7 -9 -13
-18 -15 -16 -15 -12 -11 -12 -8 -4 -3 -3 -3 -3 -3 -3 -3 -3 -3 -3 -3 -3 -3 -2 -2 -2 -2 -3 -3 -4 -5 -7 -9 -12 -14 -10 -7 -7 -9
-17 -19 -15 -13 -13 -12 -10 -8 -7 -4 -3 -3 -4 -3 -3 -3 -3 -4 -4 -4 -4 -4 -3 -3 -2 -2 -3 -3 -3 -3 -4 -5 -8 -10 -10 -7 -9 -11
-14 -16 -16 -10 -7 -9 -10 -5 -5 -5 -4 -4 -4 -4 -4 -4 -4 -4 -4 -3 -3 -4 -4 -3 -3 -3 -3 -4 -4 -4 -4 -4 -5 -7 -9 -9 -5 -6
-10 -11 -11 -7 -6 -6 -5 -5 -5 -5 -5 -4 -4 -5 -5 -5 -5 -5 -4 -4 -4 -4 -4 -4 -4 -4 -4 -4 -5 -5 -5 -4 -4 -4 -5 -5 -6 -6
-7 -9 -8 -7 -7 -6 -6 -6 -6 -6 -6 -5 -5 -5 -5 -5 -5 -5 -5 -5 -5 -4 -4 -4 -4 -4 -5 -5 -5 -5 -5 -5 -5 -6 -6 -6 -6 -7
-8 -8 -8 -7 -7 -8 -7 -7 -7 -7 -6 -7 -6 -5 -5 -5 -5 -6 -6 -5 -5 -5 -4 -5 -5 -5 -5 -5 -5 -6 -6 -5 -5 -6 -6 -6 -7 -7
-8 -7 -7 -8 -8 -8 -8 -7 -7 -7 -7 -7 -7 -7 -6 -5 -6 -6 -6 -6 -5 -5 -5 -5 -5 -5 -5 -6 -6 -6 -6 -6 -6 -6 -7 -7 -7 -7
-8 -8 -8 -8 -9 -8 -9 -9 -9 -8 -8 -7 -7 -7 -7 -6 -5 -6 -6 -6 -5 -5 -5 -5 -5 -5 -6 -6 -6 -6 -6 -6 -7 -7 -7 -7 -7 -8
-8 -8 -8 -8 -8 -8 -8 -8 -8 -9 -9 -9 -8 -8 -7 -6 -6 -6 -6 -6 -6 -5 -5 -5 -5 -5 -6 -6 -6 -6 -7 -7 -7 -7 -7 -7 -8 -8
Wind_Speed
21 22 22 21 21 21 20 21 22 23 25 21 17 10 10 15 18 22 22 19 18 18 15 15 15 15 14 12 11 11 11 11 9 8 7 4 5 7
21 22 22 22 22 22 23 22 23 25 32 27 29 28 24 21 18 20 21 19 18 16 16 17 17 16 14 13 11 11 10 9 8 7 7 5 2 2
23 23 24 23 23 23 23 24 26 26 31 37 33 29 29 25 19 20 20 19 17 16 16 17 17 16 15 14 12 12 10 9 7 6 5 5 4 2
24 24 24 24 24 24 24 25 25 26 28 35 34 33 30 26 22 22 21 20 18 17 17 17 16 15 15 15 14 13 11 9 7 5 5 4 3 4
24 24 24 24 24 24 24 26 26 26 27 29 34 33 31 29 26 24 22 20 18 18 18 16 15 15 15 15 15 14 12 10 8 7 5 5 4 4
24 24 24 24 24 24 24 25 25 25 26 27 30 31 31 29 28 27 24 21 20 18 18 17 16 16 15 13 13 13 13 12 10 8 8 7 6 6
24 24 23 23 24 23 24 24 23 24 25 26 26 28 29 29 26 26 26 24 23 21 18 17 16 13 12 12 13 14 13 12 12 11 10 10 9 9
25 24 24 23 22 22 22 23 23 23 24 25 26 28 30 28 25 23 25 25 25 21 18 15 15 15 15 16 15 15 14 14 13 13 13 12 11 11
24 24 25 23 23 21 21 21 21 22 23 24 26 26 26 24 23 23 23 24 25 22 22 23 19 19 16 16 16 16 16 16 15 15 14 14 13 13
21 22 23 23 22 22 21 21 21 20 20 21 23 24 24 23 22 21 22 22 21 21 20 23 20 18 16 16 17 17 17 16 15 15 14 14 14 15
20 20 21 21 19 20 21 21 21 19 17 17 19 21 22 22 22 22 23 21 22 21 18 20 22 19 17 18 18 17 17 16 16 16 16 14 15 16
21 22 21 21 20 20 21 21 23 22 22 21 20 21 21 20 18 19 19 20 19 18 18 16 17 13 7 11 12 15 17 16 16 14 12 11 10 13
25 25 22 22 23 21 19 19 20 20 20 18 19 20 20 20 18 18 17 17 19 21 19 19 18 16 12 12 8 6 7 9 10 11 11 11 12 13
25 27 25 22 23 24 23 22 20 19 18 18 18 18 15 14 16 18 19 20 21 20 18 20 21 22 20 20 21 20 16 14 14 13 13 13 14 16
25 25 25 25 25 27 26 22 21 21 20 22 21 18 18 19 19 18 19 20 21 22 21 22 22 21 22 22 21 20 18 17 17 18 16 16 16 18
31 30 26 27 28 27 25 22 21 22 23 21 22 19 16 16 18 17 18 16 19 19 19 21 22 21 22 22 23 23 22 17 14 15 16 15 16 17
28 30 29 27 28 29 25 21 21 18 17 18 19 21 21 20 18 18 18 16 16 17 17 18 19 19 20 20 22 23 22 22 21 20 23 24 22 22
26 27 27 24 25 23 21 21 19 18 17 19 20 21 20 18 17 17 18 18 18 17 16 15 16 18 19 21 23 24 22 19 17 19 23 24 21 17
23 25 24 22 22 22 21 20 20 20 19 19 20 21 20 19 18 18 18 19 20 18 16 15 16 17 18 24 22 19 15 11 13 16 18 19 18 14
21 23 24 23 23 25 25 26 27 25 22 21 23 22 21 21 19 18 18 18 18 18 18 17 17 17 19 20 19 15 12 13 15 15 16 16 16 15
20 22 22 22 23 23 23 24 25 25 25 21 21 23 21 20 21 19 18 17 17 18 19 19 16 14 14 17 20 18 14 15 16 16 16 14 14 14
24 24 26 26 24 24 25 26 26 26 25 24 22 22 22 21 21 20 18 18 18 19 21 19 14 13 15 16 17 16 13 14 14 14 14 13 12 7
26 26 27 26 26 26 26 24 24 27 27 26 25 24 22 22 21 21 19 18 19 18 17 17 16 15 16 15 15 13 13 13 13 12 11 12 12 10
Wind_Direction
291 288 284 283 281 280 277 277 278 283 289 297 294 294 292 299 300 301 307 310 312 313 309 309 308 308 307 307 311 314 316 318 316 316 324 330 2 49
293 289 286 285 281 277 276 274 270 270 275 277 285 289 289 289 296 300 300 301 304 303 302 304 304 303 301 299 296 301 309 315 316 319 320 314 326 63
295 291 289 288 285 281 277 274 271 268 268 277 280 283 286 286 288 291 293 295 295 296 295 296 298 297 298 296 293 292 297 301 304 308 314 314 307 272
298 295 292 290 287 286 283 277 271 269 270 276 279 280 283 289 291 292 289 288 289 291 291 292 289 288 293 294 293 291 292 292 291 290 293 296 289 280
299 297 295 292 290 288 285 278 275 272 268 269 278 281 282 283 284 284 286 286 286 285 288 289 285 286 287 290 287 286 288 285 281 279 273 270 268 264
296 295 295 294 292 289 285 282 279 273 271 268 271 276 280 283 284 284 283 282 280 279 279 278 278 282 281 282 286 287 284 282 277 269 266 264 262 258
296 295 294 293 292 291 288 284 279 275 273 272 271 274 276 278 278 283 284 284 279 278 275 268 266 266 267 271 278 279 279 276 273 270 265 263 261 262
296 294 294 294 292 288 284 283 282 279 274 273 274 271 274 276 282 280 275 274 280 278 276 267 260 257 260 265 270 272 272 271 270 267 265 264 265 266
297 298 297 296 293 290 284 280 277 276 276 277 273 274 278 281 282 275 270 270 271 270 270 272 268 268 263 261 262 262 260 260 262 264 266 268 267 267
295 298 300 301 298 292 288 285 284 282 278 273 273 277 275 277 275 273 270 269 268 267 264 268 268 267 264 262 261 258 256 254 255 260 263 265 267 267
292 297 301 301 301 295 291 288 283 282 281 280 276 276 276 274 274 269 267 271 274 272 267 264 270 277 269 261 260 254 249 247 246 250 258 258 258 261
289 293 299 299 299 297 290 286 283 281 280 274 270 275 278 276 271 269 269 268 270 279 278 268 276 280 283 266 254 244 243 240 242 244 243 247 259 261
287 291 295 295 296 298 290 289 290 294 290 290 286 275 266 269 272 272 270 268 269 266 272 280 276 274 266 258 253 238 222 235 241 244 248 248 260 267
291 291 292 289 289 296 297 289 290 294 295 293 287 282 280 268 262 262 263 264 263 265 262 265 267 272 269 262 262 260 258 259 248 239 244 253 261 266
291 291 291 289 287 289 293 289 287 287 289 286 288 284 272 267 263 262 265 265 264 263 262 260 265 267 264 262 260 262 264 256 252 249 252 265 259 258
285 287 287 285 287 292 292 286 281 275 276 283 286 286 287 280 270 262 258 263 267 264 259 257 258 264 264 263 262 262 264 259 257 250 244 256 258 254
296 293 294 294 293 291 292 292 293 293 276 274 284 282 281 280 282 272 268 262 263 269 267 262 260 259 260 257 260 263 265 263 260 258 258 260 262 260
292 291 291 289 290 289 288 292 292 293 290 279 281 281 281 279 278 273 269 265 265 265 268 266 261 256 253 260 268 273 266 261 254 254 259 267 269 262
287 289 288 284 283 284 285 284 288 294 287 280 279 278 282 285 279 273 268 268 262 269 272 271 263 258 254 263 272 267 263 252 247 254 260 263 266 259
286 287 287 285 279 278 283 284 287 288 288 274 274 276 274 279 284 280 274 270 270 261 266 268 265 262 259 270 271 266 256 246 245 250 252 257 265 266
292 289 293 294 293 292 289 286 285 284 281 281 275 272 273 269 277 284 278 272 269 261 263 264 270 270 262 255 257 260 258 253 249 250 254 259 266 271
296 291 290 288 287 286 285 284 283 282 281 278 277 273 269 268 270 277 280 271 265 260 262 266 262 257 260 257 262 263 256 248 245 243 253 260 263 266
294 295 294 290 289 288 288 287 283 278 277 277 277 275 269 268 263 267 275 271 266 265 261 261 260 251 258 257 258 254 249 244 243 246 252 259 268 266
Height
1495 1493 1490 1489 1488 1487 1485 1484 1485 1481 1477 1475 1475 1474 1474 1473 1472 1470 1468 1466 1464 1462 1460 1458 1457 1455 1454 1453 1452 1450 1449 1448 1447 1445 1444 1442 1440 1438
1490 1488 1485 1484 1482 1480 1480 1478 1477 1477 1473 1470 1471 1471 1470 1469 1468 1466 1464 1462 1461 1459 1458 1456 1454 1453 1451 1450 1449 1448 1447 1446 1445 1445 1444 1442 1441 1440
1486 1483 1480 1478 1476 1474 1473 1472 1471 1470 1466 1463 1464 1464 1463 1464 1464 1462 1460 1458 1457 1456 1454 1453 1452 1450 1449 1447 1446 1445 1444 1444 1444 1443 1443 1442 1441 1442
1481 1478 1475 1472 1470 1468 1467 1465 1463 1463 1462 1458 1458 1458 1457 1457 1457 1457 1456 1454 1452 1451 1450 1449 1448 1447 1446 1445 1444 1442 1442 1441 1441 1441 1441 1441 1441 1440
1475 1472 1469 1466 1464 1462 1460 1458 1456 1456 1454 1453 1451 1452 1452 1451 1450 1449 1449 1449 1447 1446 1445 1445 1444 1444 1443 1442 1441 1440 1439 1439 1438 1439 1439 1439 1440 1439
1469 1466 1464 1461 1457 1455 1453 1452 1450 1448 1447 1445 1444 1444 1444 1445 1445 1443 1442 1441 1441 1441 1439 1439 1439 1439 1439 1438 1438 1437 1437 1436 1436 1436 1437 1437 1437 1438
1464 1461 1458 1455 1452 1449 1446 1446 1443 1441 1441 1439 1438 1437 1436 1436 1437 1437 1435 1435 1434 1434 1434 1433 1432 1432 1434 1434 1434 1434 1433 1433 1433 1433 1434 1434 1435 1435
1456 1454 1452 1449 1446 1444 1441 1440 1439 1436 1434 1433 1433 1431 1429 1429 1429 1430 1429 1427 1428 1428 1428 1429 1428 1428 1427 1427 1428 1428 1429 1430 1430 1430 1431 1431 1431 1432
1450 1447 1445 1442 1440 1437 1436 1434 1432 1430 1428 1428 1425 1424 1424 1424 1424 1422 1422 1421 1421 1422 1421 1421 1423 1423 1422 1422 1422 1422 1423 1424 1425 1426 1427 1428 1428 1428
1444 1441 1438 1436 1434 1431 1428 1428 1427 1425 1423 1420 1419 1420 1418 1418 1417 1417 1416 1415 1415 1416 1415 1413 1414 1416 1418 1417 1417 1416 1417 1417 1419 1420 1421 1422 1424 1425
1440 1436 1433 1431 1428 1424 1423 1421 1419 1419 1417 1416 1415 1414 1414 1412 1412 1411 1411 1411 1410 1409 1411 1409 1408 1409 1411 1411 1411 1411 1412 1412 1413 1413 1415 1417 1418 1419
1433 1431 1428 1425 1423 1420 1416 1414 1413 1412 1411 1410 1410 1409 1408 1407 1407 1405 1407 1407 1407 1406 1405 1406 1405 1405 1405 1405 1406 1406 1407 1408 1408 1409 1409 1410 1412 1413
1426 1424 1422 1419 1417 1416 1413 1410 1407 1406 1404 1403 1401 1401 1401 1401 1402 1401 1401 1402 1402 1402 1402 1402 1402 1402 1403 1404 1404 1404 1404 1406 1405 1405 1405 1404 1406 1407
1418 1417 1415 1413 1410 1409 1408 1405 1404 1402 1399 1398 1396 1396 1396 1395 1396 1395 1396 1396 1397 1397 1397 1398 1396 1397 1397 1398 1400 1401 1402 1402 1402 1402 1402 1401 1401 1402
1413 1410 1408 1407 1403 1402 1401 1400 1398 1397 1395 1394 1392 1389 1390 1388 1390 1390 1391 1390 1390 1390 1390 1391 1392 1391 1392 1393 1394 1396 1397 1397 1397 1398 1398 1398 1397 1397
1405 1402 1401 1399 1397 1395 1394 1393 1391 1390 1389 1388 1387 1385 1384 1383 1384 1384 1385 1385 1383 1384 1384 1384 1386 1386 1386 1388 1389 1389 1391 1391 1391 1391 1392 1392 1392 1392
1396 1393 1393 1391 1389 1387 1386 1386 1385 1383 1382 1382 1382 1380 1379 1377 1378 1378 1379 1379 1378 1378 1378 1378 1379 1380 1381 1382 1382 1384 1384 1384 1385 1386 1386 1385 1386 1386
1390 1387 1385 1385 1384 1382 1379 1378 1378 1377 1377 1376 1375 1374 1373 1372 1372 1373 1373 1373 1372 1373 1373 1373 1373 1373 1375 1376 1377 1377 1377 1378 1379 1379 1378 1378 1380 1381
1384 1381 1379 1378 1377 1375 1374 1372 1371 1372 1371 1370 1369 1368 1367 1367 1367 1366 1367 1367 1366 1367 1367 1368 1368 1368 1368 1369 1371 1372 1372 1372 1373 1373 1373 1373 1374 1374
1378 1375 1372 1371 1369 1369 1367 1366 1365 1364 1364 1363 1363 1362 1361 1361 1361 1360 1360 1360 1360 1361 1362 1362 1363 1364 1363 1365 1366 1367 1367 1368 1368 1368 1369 1369 1368 1369
1371 1368 1366 1364 1362 1361 1360 1359 1358 1357 1356 1355 1355 1355 1355 1355 1354 1354 1354 1354 1355 1356 1356 1357 1359 1359 1359 1359 1360 1361 1363 1363 1364 1364 1364 1364 1364 1364
1363 1361 1359 1357 1355 1354 1353 1352 1351 1350 1349 1348 1348 1348 1348 1348 1348 1349 1349 1349 1349 1350 1351 1352 1353 1354 1353 1354 1356 1358 1359 1359 1359 1359 1360 1360 1361 1361
1355 1352 1349 1348 1346 1345 1344 1343 1342 1341 1341 1341 1341 1341 1341 1341 1342 1343 1343 1343 1344 1344 1345 1347 1348 1349 1349 1350 1353 1354 1354 1355 1355 1355 1356 1356 1357 1358